Regional Weather Roundup
Issued by NWS Charleston, WV

Home | Current Version | Previous Version | Graphics & Text | Print | Product List | Glossary On
Versions: 1 2 3 4 5 6 7 8 9 10 11 12 13 14 15 16 17 18 19 20 21 22 23 24 25 26 27
000
ASUS41 KRLX 151510
RWRRLX
West Virginia Regional Weather Roundup
National Weather Service Charleston WV
1000 AM EST MON JAN 15 2018

Note: "fair" indicates few or no clouds below 12,000 feet with no
significant weather and/or obstructions to visibility.

WVZ003-151600-
Northern Panhandle of West Virginia

CITY           SKY/WX    TMP DP  RH WIND       PRES   REMARKS
WHEELING       LGT SNOW  16  10  77 SE8       30.39R VSB 3/4 WCI   5
$$

WVZ009-151600-
Northwest West Virginia

CITY           SKY/WX    TMP DP  RH WIND       PRES   REMARKS
PARKERSBURG    LGT SNOW  19  15  84 S7        30.45R FOG     WCI  10
$$

WVZ006-151600-
Western West Virginia

CITY           SKY/WX    TMP DP  RH WIND       PRES   REMARKS
HUNTINGTON     CLOUDY    22  18  85 E5        30.38F
$$

WVZ015-151600-
West Central West Virginia

CITY           SKY/WX    TMP DP  RH WIND       PRES   REMARKS
CHARLESTON     CLOUDY    20  15  81 CALM      30.42R
$$

WVZ022-031-151600-
North Central West Virginia

CITY           SKY/WX    TMP DP  RH WIND       PRES   REMARKS
CLARKSBURG     CLOUDY    18  11  74 CALM      30.43R
MORGANTOWN     CLOUDY    21   6  52 SE8       30.43R
$$

WVZ025-035-042-045-151600-
Southern West Virginia

CITY           SKY/WX    TMP DP  RH WIND       PRES   REMARKS
BECKLEY        PTSUNNY   20   8  60 SE8       30.36R
LOGAN          CLOUDY    25  12  58 VRB7      30.38R
BLUEFIELD      CLOUDY    20  10  65 CALM      30.36R
LEWISBURG      PTSUNNY   16   8  70 CALM      30.41F
$$

WVZ047-151600-
Northern Mountains of West Virginia

CITY           SKY/WX    TMP DP  RH WIND       PRES   REMARKS
ELKINS         CLOUDY    14  11  87 CALM      30.40S
$$

WVZ052-151600-
Eastern Panhandle of West Virginia

CITY           SKY/WX    TMP DP  RH WIND       PRES   REMARKS
MARTINSBURG      N/A     18   7  62 CALM      30.59R
PETERSBURG     PTSUNNY   13   8  79 CALM      30.55R
$$




USA.gov is the U.S. government's official web portal to all federal, state and local government web resources and services.